Simultaneous Nadir Overpasses (SNOs) Predictions

Prediction of SNOs between NOAA-19 and TERRA Satellite Orbit:

Table of predicted SNOs for the next 14.0 days since TLE Epoch: 3/16/2024
Index Date (NOAA-19) Time (NOAA-19) Lat,Lon (NOAA-19) SZA (NOAA-19 ) Date (TERRA) Time (TERRA) Lat,Lon (TERRA) SZA (TERRA ) Distance(km) Time Diff (sec)
1 03/16/2024 12:30:48 -80.07,-166.01 97.98 03/16/2024 12:30:33 -80.07,-166.00 97.99 0.59 15
2 03/18/2024 15:29:59 -80.00, 148.34 98.93 03/18/2024 15:30:46 -80.01, 148.44 98.91 2.32 47
3 03/18/2024 16:20:59 80.10, -43.11 81.23 03/18/2024 16:20:04 80.11, -43.07 81.23 1.17 55
4 03/20/2024 19:20:11 80.00, -89.13 80.24 03/20/2024 19:20:18 80.00, -89.01 80.25 2.45 7
5 03/22/2024 22:19:21 79.94,-134.57 79.31 03/22/2024 22:20:30 79.95,-134.46 79.35 2.63 69
6 03/22/2024 23:10:12 -80.02, 33.69 100.57 03/22/2024 23:09:50 -80.03, 33.78 100.57 1.73 22
7 03/25/2024 02:09:22 -79.96, -11.75 101.49 03/25/2024 02:10:02 -79.97, -11.78 101.48 0.66 40
8 03/25/2024 03:00:23 80.04, 156.38 78.62 03/25/2024 02:59:21 80.04, 156.43 78.61 0.94 62
9 03/27/2024 05:59:33 79.97, 110.83 77.69 03/27/2024 05:59:33 79.96, 110.79 77.68 1.21 0
10 03/29/2024 08:58:44 79.87, 64.94 76.72 03/29/2024 08:59:45 79.88, 65.05 76.74 2.32 61



Historial Predications of SNOs between NOAA-19 and TERRA
